| time (UTC) | temp F | wind direction | speed MPH | gust MPH | rain 1hr in | rain 24hr in | rain mn in | humidity % | barometer mb |
| 20260905234555 | 89 | 226 | 8.0 | 13.0 | 0.00 | 0.00 | 0.00 | 13 | 1002.7 |
| 20260905234048 | 88 | 192 | 6.0 | 12.0 | 0.00 | 0.00 | 0.00 | 13 | 1002.9 |
| 20260905233548 | 88 | 184 | 6.0 | 12.0 | 0.00 | 0.00 | 0.00 | 13 | 1002.9 |
| 20260905233049 | 88 | 186 | 7.0 | 16.0 | 0.00 | 0.00 | 0.00 | 12 | 1003.1 |
| 20260905232547 | 88 | 177 | 9.0 | 16.0 | 0.00 | 0.00 | 0.00 | 13 | 1003.1 |
| 20260905232047 | 89 | 185 | 8.0 | 13.0 | 0.00 | 0.00 | 0.00 | 13 | 1003.2 |
| 20260905231547 | 89 | 213 | 8.0 | 21.0 | 0.00 | 0.00 | 0.00 | 13 | 1003.2 |
| 20260905231049 | 89 | 173 | 10.0 | 21.0 | 0.00 | 0.00 | 0.00 | 12 | 1003.1 |
| 20260905230546 | 89 | 178 | 7.0 | 17.0 | 0.00 | 0.00 | 0.00 | 13 | 1003.1 |
| 20260905230051 | 88 | 194 | 8.0 | 19.0 | 0.00 | 0.00 | 0.00 | 12 | 1003.3 |
| 20260905225548 | 88 | 155 | 7.0 | 19.0 | 0.00 | 0.00 | 0.00 | 13 | 1003.2 |
| 20260905225046 | 88 | 146 | 8.0 | 21.0 | 0.00 | 0.00 | 0.00 | 12 | 1003.2 |
| 20260905224546 | 88 | 153 | 8.0 | 19.0 | 0.00 | 0.00 | 0.00 | 12 | 1003.3 |
| 20260905224046 | 88 | 175 | 6.0 | 17.0 | 0.00 | 0.00 | 0.00 | 13 | 1003.4 |
| 20260905223545 | 88 | 163 | 7.0 | 18.0 | 0.00 | 0.00 | 0.00 | 13 | 1003.4 |
| 20260905223046 | 88 | 184 | 8.0 | 18.0 | 0.00 | 0.00 | 0.00 | 13 | 1003.4 |
| 20260905222545 | 88 | 195 | 9.0 | 19.0 | 0.00 | 0.00 | 0.00 | 13 | 1003.5 |
| 20260905222044 | 89 | 186 | 3.0 | 16.0 | 0.00 | 0.00 | 0.00 | 13 | 1003.4 |
| 20260905221544 | 88 | 165 | 6.0 | 16.0 | 0.00 | 0.00 | 0.00 | 12 | 1003.7 |
| 20260905221047 | 88 | 182 | 7.0 | 17.0 | 0.00 | 0.00 | 0.00 | 13 | 1003.6 |
| 20260905220546 | 88 | 171 | 7.0 | 17.0 | 0.00 | 0.00 | 0.00 | 13 | 1003.4 |
| 20260905220044 | 88 | 200 | 8.0 | 19.0 | 0.00 | 0.00 | 0.00 | 15 | 1003.5 |
| 20260905215542 | 89 | 188 | 8.0 | 16.0 | 0.00 | 0.00 | 0.00 | 14 | 1003.5 |
| 20260905215043 | 89 | 191 | 5.0 | 17.0 | 0.00 | 0.00 | 0.00 | 17 | 1003.5 |
| 20260905214547 | 89 | 165 | 8.0 | 17.0 | 0.00 | 0.00 | 0.00 | 15 | 1003.7 |
| 20260905214042 | 89 | 186 | 8.0 | 19.0 | 0.00 | 0.00 | 0.00 | 15 | 1003.7 |
| 20260905213541 | 89 | 186 | 6.0 | 19.0 | 0.00 | 0.00 | 0.00 | 12 | 1003.9 |
| 20260905213044 | 88 | 175 | 5.0 | 12.0 | 0.00 | 0.00 | 0.00 | 17 | 1004.0 |
| 20260905212540 | 88 | 215 | 6.0 | 22.0 | 0.00 | 0.00 | 0.00 | 16 | 1004.1 |
| 20260905212040 | 88 | 115 | 8.0 | 22.0 | 0.00 | 0.00 | 0.00 | 17 | 1004.1 |
| 20260905211538 | 88 | 134 | 5.0 | 13.0 | 0.00 | 0.00 | 0.00 | 17 | 1004.2 |
| 20260905211038 | 88 | 207 | 5.0 | 13.0 | 0.00 | 0.00 | 0.00 | 16 | 1004.5 |
| 20260905210537 | 88 | 134 | 6.0 | 14.0 | 0.00 | 0.00 | 0.00 | 16 | 1004.5 |
| 20260905210044 | 87 | 188 | 7.0 | 17.0 | 0.00 | 0.00 | 0.00 | 16 | 1004.5 |
| 20260905205537 | 88 | 137 | 8.0 | 17.0 | 0.00 | 0.00 | 0.00 | 17 | 1004.5 |
| 20260905205037 | 88 | 105 | 4.0 | 16.0 | 0.00 | 0.00 | 0.00 | 18 | 1004.3 |
| 20260905204535 | 87 | 180 | 6.0 | 15.0 | 0.00 | 0.00 | 0.00 | 17 | 1004.4 |
| 20260905204034 | 87 | 163 | 8.0 | 15.0 | 0.00 | 0.00 | 0.00 | 17 | 1004.5 |
| 20260905203538 | 87 | 140 | 7.0 | 24.0 | 0.00 | 0.00 | 0.00 | 18 | 1004.4 |
| 20260905203034 | 87 | 186 | 8.0 | 24.0 | 0.00 | 0.00 | 0.00 | 16 | 1004.5 |
| 20260905202533 | 87 | 113 | 4.0 | 16.0 | 0.00 | 0.00 | 0.00 | 19 | 1004.4 |
| 20260905202034 | 86 | 163 | 7.0 | 20.0 | 0.00 | 0.00 | 0.00 | 18 | 1004.4 |
| 20260905201538 | 86 | 137 | 9.0 | 20.0 | 0.00 | 0.00 | 0.00 | 18 | 1004.6 |
| 20260905201032 | 86 | 138 | 9.0 | 17.0 | 0.00 | 0.00 | 0.00 | 19 | 1004.8 |
| 20260905200531 | 86 | 178 | 4.0 | 18.0 | 0.00 | 0.00 | 0.00 | 20 | 1004.9 |
| 20260905200040 | 86 | 178 | 6.0 | 18.0 | 0.00 | 0.00 | 0.00 | 19 | 1005.1 |
| 20260905195529 | 86 | 172 | 8.0 | 15.0 | 0.00 | 0.00 | 0.00 | 18 | 1005.0 |
| 20260905195029 | 85 | 169 | 7.0 | 20.0 | 0.00 | 0.00 | 0.00 | 19 | 1005.1 |
| 20260905194529 | 85 | 165 | 7.0 | 20.0 | 0.00 | 0.00 | 0.00 | 19 | 1005.2 |
| 20260905194029 | 85 | 150 | 5.0 | 19.0 | 0.00 | 0.00 | 0.00 | 19 | 1005.2 |
| 20260905193527 | 84 | 150 | 9.0 | 19.0 | 0.00 | 0.00 | 0.00 | 19 | 1005.2 |
| 20260905193030 | 85 | 95 | 8.0 | 19.0 | 0.00 | 0.00 | 0.00 | 19 | 1005.3 |
| 20260905192528 | 85 | 136 | 5.0 | 16.0 | 0.00 | 0.00 | 0.00 | 18 | 1005.3 |
| 20260905192028 | 84 | 200 | 6.0 | 16.0 | 0.00 | 0.00 | 0.00 | 20 | 1005.4 |
| 20260905191526 | 84 | 177 | 8.0 | 16.0 | 0.00 | 0.00 | 0.00 | 19 | 1005.5 |
| 20260905191028 | 84 | 114 | 5.0 | 19.0 | 0.00 | 0.00 | 0.00 | 20 | 1005.6 |
| 20260905190524 | 84 | 128 | 8.0 | 19.0 | 0.00 | 0.00 | 0.00 | 19 | 1005.6 |
| 20260905190024 | 84 | 221 | 8.0 | 17.0 | 0.00 | 0.00 | 0.00 | 19 | 1005.6 |
| 20260905185523 | 83 | 129 | 7.0 | 19.0 | 0.00 | 0.00 | 0.00 | 19 | 1005.7 |
| 20260905185023 | 83 | 178 | 7.0 | 16.0 | 0.00 | 0.00 | 0.00 | 19 | 1005.9 |
| 20260905184531 | 83 | 179 | 8.0 | 18.0 | 0.00 | 0.00 | 0.00 | 18 | 1005.9 |
| 20260905184025 | 83 | 148 | 7.0 | 19.0 | 0.00 | 0.00 | 0.00 | 20 | 1006.0 |
| 20260905183524 | 83 | 102 | 5.0 | 18.0 | 0.00 | 0.00 | 0.00 | 19 | 1006.0 |
| 20260905183027 | 83 | 150 | 7.0 | 18.0 | 0.00 | 0.00 | 0.00 | 20 | 1006.1 |
| 20260905182521 | 83 | 191 | 8.0 | 18.0 | 0.00 | 0.00 | 0.00 | 19 | 1006.2 |
| 20260905182020 | 83 | 180 | 5.0 | 14.0 | 0.00 | 0.00 | 0.00 | 20 | 1006.2 |
| 20260905181519 | 83 | 140 | 6.0 | 17.0 | 0.00 | 0.00 | 0.00 | 20 | 1006.4 |
| 20260905181017 | 82 | 117 | 10.0 | 17.0 | 0.00 | 0.00 | 0.00 | 20 | 1006.5 |
| 20260905180516 | 82 | 137 | 5.0 | 12.0 | 0.00 | 0.00 | 0.00 | 21 | 1006.5 |
| 20260905180015 | 82 | 187 | 7.0 | 15.0 | 0.00 | 0.00 | 0.00 | 20 | 1006.7 |
| 20260905175514 | 82 | 183 | 5.0 | 15.0 | 0.00 | 0.00 | 0.00 | 20 | 1006.7 |
| 20260905175014 | 82 | 215 | 5.0 | 14.0 | 0.00 | 0.00 | 0.00 | 21 | 1006.7 |
| 20260905174526 | 82 | 174 | 6.0 | 18.0 | 0.00 | 0.00 | 0.00 | 21 | 1006.7 |
| 20260905174010 | 82 | 189 | 8.0 | 18.0 | 0.00 | 0.00 | 0.00 | 20 | 1006.8 |
| 20260905173510 | 82 | 103 | 2.0 | 12.0 | 0.00 | 0.00 | 0.00 | 23 | 1006.7 |
| 20260905173009 | 81 | 169 | 4.0 | 12.0 | 0.00 | 0.00 | 0.00 | 22 | 1007.0 |
| 20260905172507 | 81 | 119 | 3.0 | 14.0 | 0.00 | 0.00 | 0.00 | 24 | 1006.9 |
| 20260905172107 | 81 | 130 | 6.0 | 14.0 | 0.00 | 0.00 | 0.00 | 22 | 1007.0 |
| 20260905171507 | 80 | 138 | 4.0 | 14.0 | 0.00 | 0.00 | 0.00 | 24 | 1006.9 |
| 20260905171007 | 80 | 136 | 7.0 | 14.0 | 0.00 | 0.00 | 0.00 | 23 | 1007.0 |
| 20260905170503 | 80 | 123 | 6.0 | 14.0 | 0.00 | 0.00 | 0.00 | 22 | 1007.1 |
| 20260905170002 | 80 | 151 | 5.0 | 15.0 | 0.00 | 0.00 | 0.00 | 23 | 1007.1 |
| 20260905165501 | 80 | 142 | 6.0 | 14.0 | 0.00 | 0.00 | 0.00 | 23 | 1007.1 |
| 20260905165103 | 80 | 153 | 6.0 | 15.0 | 0.00 | 0.00 | 0.00 | 23 | 1007.0 |
| 20260905164558 | 80 | 173 | 7.0 | 17.0 | 0.00 | 0.00 | 0.00 | 23 | 1007.1 |
| 20260905164055 | 79 | 192 | 6.0 | 17.0 | 0.00 | 0.00 | 0.00 | 23 | 1007.1 |
| 20260905163556 | 79 | 163 | 8.0 | 17.0 | 0.00 | 0.00 | 0.00 | 22 | 1007.0 |
| 20260905163100 | 79 | 171 | 8.0 | 16.0 | 0.00 | 0.00 | 0.00 | 23 | 1007.0 |
| 20260905162552 | 78 | 205 | 8.0 | 16.0 | 0.00 | 0.00 | 0.00 | 24 | 1007.0 |
| 20260905162049 | 78 | 170 | 8.0 | 15.0 | 0.00 | 0.00 | 0.00 | 23 | 1006.9 |
| 20260905161549 | 78 | 184 | 6.0 | 17.0 | 0.00 | 0.00 | 0.00 | 24 | 1007.0 |
| 20260905161048 | 78 | 176 | 7.0 | 17.0 | 0.00 | 0.00 | 0.00 | 24 | 1006.9 |
| 20260905160545 | 78 | 184 | 6.0 | 12.0 | 0.00 | 0.00 | 0.00 | 25 | 1007.0 |
| 20260905160051 | 77 | 162 | 7.0 | 13.0 | 0.00 | 0.00 | 0.00 | 25 | 1007.0 |
| 20260905155543 | 77 | 182 | 6.0 | 11.0 | 0.00 | 0.00 | 0.00 | 26 | 1007.0 |
| 20260905155040 | 77 | 173 | 7.0 | 16.0 | 0.00 | 0.00 | 0.00 | 25 | 1007.1 |
| 20260905154547 | 76 | 144 | 7.0 | 16.0 | 0.00 | 0.00 | 0.00 | 26 | 1007.0 |
| 20260905154038 | 76 | 141 | 6.0 | 14.0 | 0.00 | 0.00 | 0.00 | 28 | 1007.0 |
| 20260905153536 | 76 | 171 | 5.0 | 16.0 | 0.00 | 0.00 | 0.00 | 27 | 1006.9 |
| 20260905153034 | 76 | 182 | 5.0 | 16.0 | 0.00 | 0.00 | 0.00 | 27 | 1007.1 |
| 20260905152533 | 76 | 154 | 6.0 | 10.0 | 0.00 | 0.00 | 0.00 | 28 | 1006.9 |
| 20260905152033 | 75 | 142 | 6.0 | 11.0 | 0.00 | 0.00 | 0.00 | 27 | 1007.0 |
| 20260905151531 | 75 | 176 | 4.0 | 14.0 | 0.00 | 0.00 | 0.00 | 28 | 1007.0 |
| 20260905151032 | 75 | 173 | 7.0 | 16.0 | 0.00 | 0.00 | 0.00 | 26 | 1007.0 |
| 20260905150529 | 75 | 182 | 4.0 | 10.0 | 0.00 | 0.00 | 0.00 | 27 | 1007.0 |
| 20260905150030 | 74 | 180 | 5.0 | 10.0 | 0.00 | 0.00 | 0.00 | 27 | 1006.9 |
| 20260905145529 | 74 | 180 | 4.0 | 13.0 | 0.00 | 0.00 | 0.00 | 27 | 1007.0 |
| 20260905145028 | 73 | 137 | 6.0 | 15.0 | 0.00 | 0.00 | 0.00 | 27 | 1006.9 |
| 20260905144542 | 73 | 185 | 8.0 | 14.0 | 0.00 | 0.00 | 0.00 | 29 | 1006.8 |
| 20260905144025 | 73 | 131 | 5.0 | 15.0 | 0.00 | 0.00 | 0.00 | 30 | 1006.8 |
| 20260905143524 | 72 | 140 | 5.0 | 15.0 | 0.00 | 0.00 | 0.00 | 31 | 1006.7 |
| 20260905143026 | 72 | 157 | 4.0 | 12.0 | 0.00 | 0.00 | 0.00 | 31 | 1006.7 |
| 20260905142622 | 72 | 181 | 5.0 | 12.0 | 0.00 | 0.00 | 0.00 | 30 | 1006.6 |
| 20260905142026 | 72 | 152 | 6.0 | 13.0 | 0.00 | 0.00 | 0.00 | 30 | 1006.4 |
| 20260905141538 | 72 | 173 | 5.0 | 12.0 | 0.00 | 0.00 | 0.00 | 30 | 1006.3 |
| 20260905141023 | 71 | 184 | 7.0 | 12.0 | 0.00 | 0.00 | 0.00 | 30 | 1006.2 |
| 20260905140520 | 71 | 171 | 5.0 | 12.0 | 0.00 | 0.00 | 0.00 | 30 | 1006.2 |
| 20260905140020 | 71 | 157 | 5.0 | 12.0 | 0.00 | 0.00 | 0.00 | 30 | 1006.2 |
| 20260905135518 | 70 | 170 | 6.0 | 13.0 | 0.00 | 0.00 | 0.00 | 29 | 1006.1 |
| 20260905135018 | 70 | 141 | 6.0 | 12.0 | 0.00 | 0.00 | 0.00 | 28 | 1006.0 |
| 20260905134518 | 69 | 143 | 4.0 | 12.0 | 0.00 | 0.00 | 0.00 | 29 | 1006.0 |
| 20260905134017 | 69 | 360 | 3.0 | 9.0 | 0.00 | 0.00 | 0.00 | 28 | 1006.0 |
| 20260905133516 | 68 | 149 | 3.0 | 8.0 | 0.00 | 0.00 | 0.00 | 29 | 1006.0 |
| 20260905133015 | 67 | 360 | 3.0 | 8.0 | 0.00 | 0.00 | 0.00 | 29 | 1005.8 |
| 20260905132517 | 67 | 360 | 2.0 | 6.0 | 0.00 | 0.00 | 0.00 | 31 | 1005.8 |
| 20260905132017 | 66 | 360 | 2.0 | 8.0 | 0.00 | 0.00 | 0.00 | 31 | 1005.7 |
| 20260905131513 | 66 | 360 | 2.0 | 8.0 | 0.00 | 0.00 | 0.00 | 33 | 1005.7 |
| 20260905131012 | 66 | 360 | 2.0 | 5.0 | 0.00 | 0.00 | 0.00 | 33 | 1005.6 |
| 20260905130510 | 65 | 360 | 2.0 | 6.0 | 0.00 | 0.00 | 0.00 | 33 | 1005.5 |
| 20260905130010 | 65 | 360 | 2.0 | 6.0 | 0.00 | 0.00 | 0.00 | 34 | 1005.4 |
| 20260905125510 | 65 | 360 | 2.0 | 6.0 | 0.00 | 0.00 | 0.00 | 34 | 1005.4 |
| 20260905125009 | 65 | 360 | 2.0 | 4.0 | 0.00 | 0.00 | 0.00 | 35 | 1005.3 |
| 20260905124508 | 65 | 360 | 2.0 | 6.0 | 0.00 | 0.00 | 0.00 | 34 | 1005.2 |
| 20260905124008 | 66 | 360 | 2.0 | 8.0 | 0.00 | 0.00 | 0.00 | 34 | 1005.2 |
| 20260905123506 | 65 | 360 | 3.0 | 8.0 | 0.00 | 0.00 | 0.00 | 35 | 1005.1 |
| 20260905123106 | 65 | 360 | 2.0 | 6.0 | 0.00 | 0.00 | 0.00 | 36 | 1005.0 |
| 20260905122508 | 65 | 133 | 3.0 | 6.0 | 0.00 | 0.00 | 0.00 | 36 | 1005.0 |
| 20260905122005 | 66 | 160 | 3.0 | 7.0 | 0.00 | 0.00 | 0.00 | 37 | 1005.0 |
| 20260905121504 | 66 | 135 | 2.0 | 8.0 | 0.00 | 0.00 | 0.00 | 37 | 1004.8 |
| 20260905121002 | 66 | 141 | 2.0 | 9.0 | 0.00 | 0.00 | 0.00 | 36 | 1004.8 |
| 20260905120500 | 67 | 360 | 3.0 | 9.0 | 0.00 | 0.00 | 0.00 | 36 | 1004.8 |
| 20260905120001 | 67 | 114 | 3.0 | 8.0 | 0.00 | 0.00 | 0.00 | 37 | 1004.8 |
| 20260905115602 | 67 | 134 | 3.0 | 9.0 | 0.00 | 0.00 | 0.00 | 37 | 1004.8 |
| 20260905115100 | 67 | 138 | 5.0 | 10.0 | 0.00 | 0.00 | 0.00 | 38 | 1004.8 |
| 20260905114630 | 67 | 176 | 4.0 | 10.0 | 0.00 | 0.00 | 0.00 | 38 | 1004.7 |
| 20260905114058 | 67 | 163 | 3.0 | 9.0 | 0.00 | 0.00 | 0.00 | 39 | 1004.8 |
| 20260905113558 | 67 | 143 | 3.0 | 8.0 | 0.00 | 0.00 | 0.00 | 39 | 1004.7 |
| 20260905113100 | 67 | 153 | 3.0 | 8.0 | 0.00 | 0.00 | 0.00 | 40 | 1004.7 |
| 20260905112557 | 67 | 125 | 4.0 | 8.0 | 0.00 | 0.00 | 0.00 | 40 | 1004.7 |
| 20260905112057 | 67 | 143 | 4.0 | 8.0 | 0.00 | 0.00 | 0.00 | 41 | 1004.7 |
| 20260905111557 | 68 | 141 | 2.0 | 8.0 | 0.00 | 0.00 | 0.00 | 39 | 1004.7 |
| 20260905111057 | 68 | 134 | 3.0 | 8.0 | 0.00 | 0.00 | 0.00 | 39 | 1004.8 |
| 20260905110556 | 68 | 139 | 3.0 | 9.0 | 0.00 | 0.00 | 0.00 | 38 | 1004.7 |
| 20260905110056 | 69 | 145 | 4.0 | 8.0 | 0.00 | 0.00 | 0.00 | 38 | 1004.6 |
| 20260905105555 | 69 | 135 | 2.0 | 9.0 | 0.00 | 0.00 | 0.00 | 37 | 1004.6 |
| 20260905105056 | 70 | 119 | 4.0 | 9.0 | 0.00 | 0.00 | 0.00 | 38 | 1004.6 |
| 20260905104556 | 70 | 138 | 2.0 | 9.0 | 0.00 | 0.00 | 0.00 | 36 | 1004.5 |
| 20260905104058 | 71 | 177 | 4.0 | 9.0 | 0.00 | 0.00 | 0.00 | 36 | 1004.5 |
| 20260905103558 | 71 | 125 | 3.0 | 9.0 | 0.00 | 0.00 | 0.00 | 36 | 1004.5 |
| 20260905103055 | 70 | 161 | 3.0 | 9.0 | 0.00 | 0.00 | 0.00 | 36 | 1004.5 |
| 20260905102554 | 70 | 182 | 3.0 | 8.0 | 0.00 | 0.00 | 0.00 | 37 | 1004.5 |
| 20260905102054 | 69 | 151 | 3.0 | 8.0 | 0.00 | 0.00 | 0.00 | 38 | 1004.6 |
| 20260905101555 | 69 | 140 | 2.0 | 10.0 | 0.00 | 0.00 | 0.00 | 39 | 1004.4 |
| 20260905101053 | 68 | 136 | 2.0 | 10.0 | 0.00 | 0.00 | 0.00 | 40 | 1004.4 |
| 20260905100553 | 68 | 126 | 2.0 | 7.0 | 0.00 | 0.00 | 0.00 | 38 | 1004.3 |
| 20260905100111 | 68 | 132 | 3.0 | 7.0 | 0.00 | 0.00 | 0.00 | 38 | 1004.4 |
| 20260905095552 | 68 | 115 | 3.0 | 6.0 | 0.00 | 0.00 | 0.00 | 37 | 1004.2 |
| 20260905095054 | 68 | 134 | 3.0 | 6.0 | 0.00 | 0.00 | 0.00 | 39 | 1004.2 |
| 20260905094604 | 67 | 133 | 2.0 | 4.0 | 0.00 | 0.00 | 0.00 | 38 | 1004.2 |
| 20260905094050 | 68 | 131 | 2.0 | 6.0 | 0.00 | 0.00 | 0.00 | 36 | 1004.1 |
| 20260905093549 | 68 | 138 | 1.0 | 6.0 | 0.00 | 0.00 | 0.00 | 35 | 1004.0 |
| 20260905093049 | 68 | 122 | 1.0 | 4.0 | 0.00 | 0.00 | 0.00 | 36 | 1004.0 |
| 20260905092551 | 68 | 146 | 1.0 | 8.0 | 0.00 | 0.00 | 0.00 | 39 | 1004.0 |
| 20260905092048 | 68 | 146 | 1.0 | 8.0 | 0.00 | 0.00 | 0.00 | 38 | 1003.8 |
| 20260905091558 | 67 | 119 | 1.0 | 4.0 | 0.00 | 0.00 | 0.00 | 38 | 1003.9 |
| 20260905091047 | 67 | 132 | 0.0 | 4.0 | 0.00 | 0.00 | 0.00 | 40 | 1003.9 |
| 20260905090545 | 67 | 120 | 2.0 | 4.0 | 0.00 | 0.00 | 0.00 | 41 | 1003.7 |
| 20260905090044 | 68 | 132 | 1.0 | 3.0 | 0.00 | 0.00 | 0.00 | 42 | 1003.7 |
| 20260905085543 | 68 | 134 | 1.0 | 3.0 | 0.00 | 0.00 | 0.00 | 42 | 1003.6 |
| 20260905085042 | 69 | 131 | 0.0 | 4.0 | 0.00 | 0.00 | 0.00 | 42 | 1003.6 |
| 20260905084541 | 69 | 121 | 1.0 | 4.0 | 0.00 | 0.00 | 0.00 | 42 | 1003.5 |
| 20260905084040 | 69 | 132 | 0.0 | 6.0 | 0.00 | 0.00 | 0.00 | 40 | 1003.4 |
| 20260905083544 | 69 | 136 | 1.0 | 7.0 | 0.00 | 0.00 | 0.00 | 45 | 1003.3 |
| 20260905083039 | 69 | 134 | 3.0 | 7.0 | 0.00 | 0.00 | 0.00 | 44 | 1003.3 |
| 20260905082538 | 69 | 120 | 2.0 | 7.0 | 0.00 | 0.00 | 0.00 | 44 | 1003.3 |
| 20260905082036 | 70 | 112 | 2.0 | 8.0 | 0.00 | 0.00 | 0.00 | 39 | 1003.2 |
| 20260905081537 | 70 | 92 | 3.0 | 8.0 | 0.00 | 0.00 | 0.00 | 40 | 1003.1 |
| 20260905081035 | 69 | 148 | 2.0 | 5.0 | 0.00 | 0.00 | 0.00 | 40 | 1003.2 |
| 20260905080534 | 70 | 115 | 1.0 | 5.0 | 0.00 | 0.00 | 0.00 | 40 | 1003.1 |
| 20260905080038 | 70 | 150 | 0.0 | 5.0 | 0.00 | 0.00 | 0.00 | 38 | 1003.1 |
| 20260905075531 | 71 | 131 | 1.0 | 5.0 | 0.00 | 0.00 | 0.00 | 37 | 1003.0 |
| 20260905075030 | 71 | 153 | 1.0 | 5.0 | 0.00 | 0.00 | 0.00 | 37 | 1003.1 |
| 20260905074542 | 71 | 134 | 2.0 | 5.0 | 0.00 | 0.00 | 0.00 | 36 | 1003.1 |
| 20260905074029 | 71 | 136 | 2.0 | 5.0 | 0.00 | 0.00 | 0.00 | 36 | 1003.0 |
| 20260905073528 | 71 | 148 | 1.0 | 5.0 | 0.00 | 0.00 | 0.00 | 36 | 1002.9 |
| 20260905073033 | 72 | 152 | 0.0 | 3.0 | 0.00 | 0.00 | 0.00 | 36 | 1002.8 |
| 20260905072526 | 72 | 178 | 0.0 | 4.0 | 0.00 | 0.00 | 0.00 | 35 | 1002.7 |
| 20260905072025 | 72 | 119 | 1.0 | 4.0 | 0.00 | 0.00 | 0.00 | 35 | 1002.6 |
| 20260905071525 | 73 | 154 | 1.0 | 3.0 | 0.00 | 0.00 | 0.00 | 35 | 1002.6 |
| 20260905071024 | 73 | 138 | 1.0 | 4.0 | 0.00 | 0.00 | 0.00 | 34 | 1002.6 |
| 20260905070523 | 73 | 176 | 1.0 | 5.0 | 0.00 | 0.00 | 0.00 | 34 | 1002.5 |
| 20260905070022 | 73 | 177 | 2.0 | 5.0 | 0.00 | 0.00 | 0.00 | 34 | 1002.5 |
| 20260905065523 | 73 | 184 | 1.0 | 6.0 | 0.00 | 0.00 | 0.00 | 34 | 1002.4 |
| 20260905065027 | 73 | 128 | 1.0 | 6.0 | 0.00 | 0.00 | 0.00 | 34 | 1002.4 |
| 20260905064521 | 73 | 159 | 1.0 | 5.0 | 0.00 | 0.00 | 0.00 | 35 | 1002.3 |
| 20260905064021 | 73 | 151 | 1.0 | 5.0 | 0.00 | 0.00 | 0.00 | 34 | 1002.2 |
| 20260905063521 | 73 | 179 | 2.0 | 5.0 | 0.00 | 0.00 | 0.00 | 34 | 1002.2 |
| 20260905063021 | 73 | 171 | 3.0 | 5.0 | 0.00 | 0.00 | 0.00 | 35 | 1002.1 |
| 20260905062519 | 73 | 163 | 2.0 | 5.0 | 0.00 | 0.00 | 0.00 | 37 | 1002.0 |
| 20260905062021 | 74 | 145 | 2.0 | 5.0 | 0.00 | 0.00 | 0.00 | 33 | 1002.0 |
| 20260905061517 | 74 | 144 | 3.0 | 8.0 | 0.00 | 0.00 | 0.00 | 33 | 1001.9 |
| 20260905061016 | 75 | 168 | 3.0 | 7.0 | 0.00 | 0.00 | 0.00 | 32 | 1001.8 |
| 20260905060513 | 75 | 165 | 2.0 | 8.0 | 0.00 | 0.00 | 0.00 | 31 | 1001.7 |
| 20260905060016 | 75 | 140 | 3.0 | 8.0 | 0.00 | 0.00 | 0.00 | 31 | 1001.7 |
| 20260905055512 | 75 | 161 | 2.0 | 8.0 | 0.00 | 0.00 | 0.00 | 32 | 1001.6 |
| 20260905055011 | 75 | 178 | 2.0 | 8.0 | 0.00 | 0.00 | 0.00 | 33 | 1001.6 |
| 20260905054514 | 76 | 166 | 2.0 | 10.0 | 0.00 | 0.00 | 0.00 | 31 | 1001.5 |
| 20260905054011 | 76 | 134 | 3.0 | 10.0 | 0.00 | 0.00 | 0.00 | 30 | 1001.5 |
| 20260905053513 | 75 | 133 | 4.0 | 9.0 | 0.00 | 0.00 | 0.00 | 32 | 1001.4 |
| 20260905053011 | 75 | 169 | 2.0 | 9.0 | 0.00 | 0.00 | 0.00 | 31 | 1001.4 |
| 20260905052512 | 75 | 132 | 2.0 | 9.0 | 0.00 | 0.00 | 0.00 | 29 | 1001.4 |
| 20260905052009 | 75 | 146 | 2.0 | 10.0 | 0.00 | 0.00 | 0.00 | 29 | 1001.3 |
| 20260905051510 | 75 | 129 | 3.0 | 10.0 | 0.00 | 0.00 | 0.00 | 28 | 1001.3 |
| 20260905051009 | 75 | 154 | 2.0 | 9.0 | 0.00 | 0.00 | 0.00 | 28 | 1001.2 |
| 20260905050512 | 75 | 138 | 3.0 | 9.0 | 0.00 | 0.00 | 0.00 | 28 | 1001.2 |
| 20260905050011 | 74 | 128 | 3.0 | 9.0 | 0.00 | 0.00 | 0.00 | 28 | 1001.1 |
| 20260905045509 | 74 | 127 | 3.0 | 8.0 | 0.00 | 0.00 | 0.00 | 28 | 1001.2 |
| 20260905045009 | 74 | 135 | 3.0 | 7.0 | 0.00 | 0.00 | 0.00 | 28 | 1001.1 |
| 20260905044508 | 74 | 124 | 2.0 | 5.0 | 0.00 | 0.00 | 0.00 | 29 | 1001.1 |
| 20260905044008 | 74 | 146 | 3.0 | 7.0 | 0.00 | 0.00 | 0.00 | 29 | 1001.1 |
| 20260905043507 | 75 | 128 | 3.0 | 7.0 | 0.00 | 0.00 | 0.00 | 29 | 1001.1 |
| 20260905043008 | 75 | 139 | 3.0 | 7.0 | 0.00 | 0.00 | 0.00 | 28 | 1001.0 |
| 20260905042510 | 75 | 103 | 3.0 | 7.0 | 0.00 | 0.00 | 0.00 | 28 | 1001.0 |
| 20260905042006 | 75 | 134 | 2.0 | 6.0 | 0.00 | 0.00 | 0.00 | 28 | 1000.9 |
| 20260905041507 | 75 | 136 | 2.0 | 6.0 | 0.00 | 0.00 | 0.00 | 28 | 1000.9 |
| 20260905041006 | 76 | 137 | 2.0 | 5.0 | 0.00 | 0.00 | 0.00 | 26 | 1000.9 |
| 20260905040505 | 77 | 125 | 2.0 | 4.0 | 0.00 | 0.00 | 0.00 | 26 | 1000.9 |
| 20260905040005 | 78 | 136 | 2.0 | 6.0 | 0.00 | 0.00 | 0.00 | 24 | 1000.8 |
| 20260905035505 | 80 | 153 | 2.0 | 9.0 | 0.00 | 0.00 | 0.00 | 22 | 1000.7 |
| 20260905035005 | 81 | 141 | 3.0 | 9.0 | 0.00 | 0.00 | 0.00 | 21 | 1000.7 |
| 20260905034505 | 81 | 182 | 3.0 | 9.0 | 0.00 | 0.00 | 0.00 | 21 | 1000.6 |
| 20260905034004 | 80 | 173 | 3.0 | 7.0 | 0.00 | 0.00 | 0.00 | 22 | 1000.5 |
| 20260905033504 | 80 | 179 | 3.0 | 8.0 | 0.00 | 0.00 | 0.00 | 23 | 1000.6 |
| 20260905033013 | 80 | 176 | 2.0 | 5.0 | 0.00 | 0.00 | 0.00 | 23 | 1000.6 |
| 20260905032504 | 81 | 180 | 3.0 | 5.0 | 0.00 | 0.00 | 0.00 | 23 | 1000.6 |
| 20260905032004 | 81 | 183 | 3.0 | 5.0 | 0.00 | 0.00 | 0.00 | 23 | 1000.5 |
| 20260905031505 | 81 | 183 | 2.0 | 4.0 | 0.00 | 0.00 | 0.00 | 23 | 1000.5 |
| 20260905031004 | 81 | 180 | 2.0 | 4.0 | 0.00 | 0.00 | 0.00 | 23 | 1000.4 |
| 20260905030503 | 82 | 172 | 2.0 | 4.0 | 0.00 | 0.00 | 0.00 | 22 | 1000.5 |
| 20260905030005 | 82 | 185 | 3.0 | 7.0 | 0.00 | 0.00 | 0.00 | 22 | 1000.3 |
| 20260905025506 | 82 | 172 | 2.0 | 8.0 | 0.00 | 0.00 | 0.00 | 22 | 1000.3 |
| 20260905025003 | 82 | 171 | 3.0 | 8.0 | 0.00 | 0.00 | 0.00 | 23 | 1000.2 |
| 20260905024504 | 81 | 163 | 3.0 | 6.0 | 0.00 | 0.00 | 0.00 | 23 | 1000.1 |
| 20260905024004 | 82 | 145 | 1.0 | 7.0 | 0.00 | 0.00 | 0.00 | 22 | 1000.0 |
| 20260905023502 | 83 | 163 | 1.0 | 7.0 | 0.00 | 0.00 | 0.00 | 22 | 1000.0 |
| 20260905023010 | 83 | 155 | 2.0 | 10.0 | 0.00 | 0.00 | 0.00 | 21 | 1000.0 |
| 20260905022502 | 84 | 162 | 3.0 | 10.0 | 0.00 | 0.00 | 0.00 | 21 | 1000.0 |
| 20260905022002 | 84 | 149 | 4.0 | 12.0 | 0.00 | 0.00 | 0.00 | 21 | 999.9 |
| 20260905021503 | 84 | 161 | 3.0 | 12.0 | 0.00 | 0.00 | 0.00 | 20 | 999.8 |
| 20260905021102 | 84 | 174 | 4.0 | 12.0 | 0.00 | 0.00 | 0.00 | 20 | 999.8 |
| 20260905020501 | 85 | 181 | 4.0 | 11.0 | 0.00 | 0.00 | 0.00 | 20 | 999.7 |
| 20260905020002 | 85 | 173 | 5.0 | 11.0 | 0.00 | 0.00 | 0.00 | 20 | 999.7 |
| 20260905015501 | 85 | 183 | 5.0 | 12.0 | 0.00 | 0.00 | 0.00 | 20 | 999.7 |
| 20260905015102 | 85 | 156 | 6.0 | 12.0 | 0.00 | 0.00 | 0.00 | 20 | 999.7 |
| 20260905015000 | 85 | 159 | 4.0 | 14.0 | 0.00 | 0.00 | 0.00 | 20 | 999.7 |
| 20260905014616 | 85 | 159 | 6.0 | 13.0 | 0.00 | 0.00 | 0.00 | 20 | 999.6 |
| 20260905014100 | 86 | 155 | 5.0 | 13.0 | 0.00 | 0.00 | 0.00 | 20 | 999.7 |
| 20260905013602 | 86 | 184 | 6.0 | 15.0 | 0.00 | 0.00 | 0.00 | 19 | 999.7 |
| 20260905013101 | 86 | 188 | 6.0 | 15.0 | 0.00 | 0.00 | 0.00 | 19 | 999.7 |
| 20260905012600 | 86 | 194 | 5.0 | 15.0 | 0.00 | 0.00 | 0.00 | 19 | 999.7 |
| 20260905012101 | 86 | 176 | 6.0 | 15.0 | 0.00 | 0.00 | 0.00 | 20 | 999.6 |
| 20260905011605 | 87 | 194 | 7.0 | 15.0 | 0.00 | 0.00 | 0.00 | 19 | 999.6 |
| 20260905011102 | 87 | 186 | 6.0 | 22.0 | 0.00 | 0.00 | 0.00 | 19 | 999.7 |
| 20260905010602 | 87 | 188 | 8.0 | 22.0 | 0.00 | 0.00 | 0.00 | 19 | 999.6 |
| 20260905010059 | 87 | 206 | 10.0 | 18.0 | 0.00 | 0.00 | 0.00 | 18 | 999.6 |
| 20260905005559 | 87 | 182 | 7.0 | 17.0 | 0.00 | 0.00 | 0.00 | 19 | 999.5 |
| 20260905005059 | 87 | 209 | 9.0 | 17.0 | 0.00 | 0.00 | 0.00 | 18 | 999.5 |
| 20260905004559 | 88 | 185 | 6.0 | 15.0 | 0.00 | 0.00 | 0.00 | 19 | 999.6 |
| 20260905004058 | 88 | 198 | 7.0 | 21.0 | 0.00 | 0.00 | 0.00 | 18 | 999.6 |
| 20260905003604 | 88 | 162 | 7.0 | 21.0 | 0.00 | 0.00 | 0.00 | 18 | 999.6 |
| 20260905003058 | 88 | 184 | 7.0 | 12.0 | 0.00 | 0.00 | 0.00 | 18 | 999.6 |
| 20260905002556 | 88 | 186 | 9.0 | 23.0 | 0.00 | 0.00 | 0.00 | 18 | 999.6 |
| 20260905002057 | 88 | 179 | 11.0 | 23.0 | 0.00 | 0.00 | 0.00 | 17 | 999.6 |
| 20260905001606 | 88 | 181 | 7.0 | 20.0 | 0.00 | 0.00 | 0.00 | 18 | 999.6 |
| 20260905001056 | 88 | 176 | 9.0 | 20.0 | 0.00 | 0.00 | 0.00 | 17 | 999.8 |
| 20260905000556 | 88 | 188 | 8.0 | 17.0 | 0.00 | 0.00 | 0.00 | 17 | 999.6 |
| 20260905000112 | 88 | 189 | 7.0 | 18.0 | 0.00 | 0.00 | 0.00 | 17 | 999.5 |
| 20260904235555 | 88 | 180 | 7.0 | 18.0 | 0.00 | 0.00 | 0.00 | 17 | 999.7 |
| 20260904235054 | 88 | 166 | 7.0 | 18.0 | 0.00 | 0.00 | 0.00 | 17 | 999.7 |